This is the latest recevied weather packets stored in our database for station/object OK1LPD-6. If no packets are shown the sender has not sent any weather packets the latest 1 day(s).
| Time | Temp. | Humidity | Pressure | Rain* | Wind** | Luminosity | Snow |
|---|---|---|---|---|---|---|---|
| 1777967104 | 23.33° C | 56% | 1008.1 hPa | 0 mm | 0 m/s | - | - |
| 1777966485 | 23.33° C | 55% | 1008.3 hPa | 0 mm | 0 m/s | - | - |
| 1777965885 | 23.33° C | 55% | 1008.4 hPa | 0 mm | 0 m/s | - | - |
| 1777965307 | 23.33° C | 55% | 1008.3 hPa | 0 mm | 0 m/s | - | - |
| 1777964686 | 22.78° C | 56% | 1008.3 hPa | 0 mm | 0 m/s | - | - |
| 1777964085 | 22.22° C | 60% | 1008.4 hPa | 0 mm | 0 m/s | - | - |
| 1777963504 | 21.67° C | 64% | 1008.5 hPa | 0 mm | 0 m/s | - | - |
| 1777962886 | 20° C | 63% | 1008.5 hPa | 0 mm | 0 m/s | - | - |
| 1777962286 | 20° C | 64% | 1008.8 hPa | 0 mm | 0 m/s | - | - |
| 1777961707 | 20.56° C | 64% | 1008.7 hPa | 0 mm | 0 m/s | - | - |
| 1777961087 | 18.33° C | 72% | 1008.9 hPa | 0 mm | 0 m/s | - | - |
| 1777960486 | 17.78° C | 73% | 1008.9 hPa | 0 mm | 0 m/s | - | - |
| 1777959904 | 17.22° C | 80% | 1008.9 hPa | 0 mm | 0 m/s | - | - |
| 1777959287 | 16.11° C | 83% | 1008.9 hPa | 0 mm | 0 m/s | - | - |
| 1777958687 | 15.56° C | 82% | 1008.9 hPa | 0 mm | 0 m/s | - | - |
| 1777958107 | 15.56° C | 81% | 1008.9 hPa | 0 mm | 0 m/s | - | - |
| 1777957489 | 16.11° C | 84% | 1008.9 hPa | 0 mm | 0 m/s | - | - |
| 1777956886 | 15° C | 90% | 1009 hPa | 0 mm | 0 m/s | - | - |
| 1777956305 | 14.44° C | 92% | 1009 hPa | 0 mm | 0 m/s | - | - |
| 1777955687 | 14.44° C | 95% | 1009 hPa | 0 mm | 0 m/s | - | - |
* Rain latest hour (hover to see other rain measurements)
** Current wind speed in m/s (hover to see current wind gust speed)